TimeCEST,TemperatureF,Dew PointF,Humidity,Sea Level PressureIn,VisibilityMPH,Wind Direction,Wind SpeedMPH,Gust SpeedMPH,PrecipitationIn,Events,Conditions,WindDirDegrees,DateUTC
12:55 AM,68.0,66.2,94,30.09,6.2,WNW,2.3,-,N/A,,Scattered Clouds,300,2013-10-07 22:55:00
1:55 AM,66.2,66.2,100,30.12,6.2,WNW,4.6,-,N/A,,Scattered Clouds,290,2013-10-07 23:55:00
2:00 AM,66,66,98,30.13,7,WNW,4.6,,,,Scattered Clouds,290,2013-10-08 00:00:00
2:55 AM,66.2,66.2,100,30.12,6.2,NW,4.6,-,N/A,,Mostly Cloudy,310,2013-10-08 00:55:00
3:55 AM,68.0,66.2,94,30.09,6.2,North,2.3,-,N/A,,Mostly Cloudy,350,2013-10-08 01:55:00
4:55 AM,66.2,66.2,100,30.09,6.2,West,4.6,-,N/A,,Mostly Cloudy,260,2013-10-08 02:55:00
5:00 AM,67,65,93,30.11,6,West,4.6,,,,Overcast,260,2013-10-08 03:00:00
5:55 AM,66.2,64.4,94,30.09,6.2,WNW,4.6,-,N/A,,Mostly Cloudy,290,2013-10-08 03:55:00
6:55 AM,64.4,64.4,100,30.09,6.2,WSW,4.6,-,N/A,,Mostly Cloudy,250,2013-10-08 04:55:00
7:55 AM,64.4,64.4,100,30.09,6.2,West,2.3,-,N/A,,Scattered Clouds,270,2013-10-08 05:55:00
8:00 AM,64,64,99,30.11,7,West,2.3,,,,Partly Cloudy,270,2013-10-08 06:00:00
8:55 AM,66.2,66.2,100,30.12,6.2,SSW,2.3,-,N/A,,Mostly Cloudy,210,2013-10-08 06:55:00
9:55 AM,69.8,69.8,100,30.12,5.0,Calm,Calm,-,N/A,,Mostly Cloudy,0,2013-10-08 07:55:00
10:55 AM,71.6,69.8,94,30.15,5.0,WNW,3.5,-,N/A,,Mostly Cloudy,300,2013-10-08 08:55:00
11:00 AM,72,71,94,30.16,5,WNW,3.5,,,,Mist,300,2013-10-08 09:00:00
11:55 AM,73.4,69.8,88,30.15,5.0,NW,3.5,-,N/A,,Mostly Cloudy,310,2013-10-08 09:55:00
1:55 PM,78.8,59.0,51,30.12,6.2,WSW,10.4,-,N/A,,Scattered Clouds,250,2013-10-08 11:55:00
2:00 PM,79,59,39,30.14,6,WSW,10.4,,,,Partly Cloudy,250,2013-10-08 12:00:00
2:55 PM,80.6,59.0,48,30.09,6.2,West,6.9,-,N/A,,Scattered Clouds,260,2013-10-08 12:55:00
3:55 PM,80.6,57.2,45,30.09,6.2,NNW,8.1,-,N/A,,Scattered Clouds,340,2013-10-08 13:55:00
4:55 PM,80.6,57.2,45,30.06,6.2,SW,5.8,-,N/A,,Scattered Clouds,230,2013-10-08 14:55:00
5:00 PM,80,58,36,30.09,6,SW,5.8,,,,Scattered Clouds,230,2013-10-08 15:00:00
5:55 PM,77.0,57.2,50,30.09,6.2,SW,4.6,-,N/A,,Scattered Clouds,230,2013-10-08 15:55:00
6:55 PM,75.2,57.2,53,30.09,6.2,SW,2.3,-,N/A,,Scattered Clouds,220,2013-10-08 16:55:00
7:55 PM,71.6,62.6,73,30.09,6.2,NE,5.8,-,N/A,,Scattered Clouds,50,2013-10-08 17:55:00
8:00 PM,72,62,63,30.11,6,NE,5.8,,,,Scattered Clouds,50,2013-10-08 18:00:00
8:55 PM,71.6,69.8,94,30.09,6.2,North,4.6,-,N/A,,Scattered Clouds,360,2013-10-08 18:55:00
9:55 PM,71.6,69.8,94,30.12,6.2,North,3.5,-,N/A,,Scattered Clouds,350,2013-10-08 19:55:00
10:55 PM,66.2,62.6,88,30.15,6.2,SSW,3.5,-,N/A,,Partly Cloudy,210,2013-10-08 20:55:00
11:00 PM,67,63,83,30.15,6,SSW,3.5,,,,Scattered Clouds,210,2013-10-08 21:00:00
11:55 PM,64.4,64.4,100,30.15,-9999.0,WNW,3.5,-,N/A,,Clear,300,2013-10-08 21:55:00